GW6952 Weather Reports


time (UTC)temp
C
wind
direction
speed
KPH
gust
KPH
rain 1hr
cm
rain 24hr
cm
rain mn
cm
humidity
%
barometer
mb
20260506223016 23 293 6.4 14.5 0.00 0.00 0.00 40 1018.3
20260506222016 23 0 8.0 17.7 0.00 0.00 0.00 41 1018.4
20260506221016 23 293 4.8 12.9 0.00 0.00 0.00 40 1018.5
20260506220016 23 338 9.7 22.5 0.00 0.00 0.00 42 1018.7
20260506215016 22 338 6.4 19.3 0.00 0.00 0.00 41 1018.8
20260506214016 22 293 6.4 14.5 0.00 0.00 0.00 41 1019.0
20260506213016 22 338 11.3 19.3 0.00 0.00 0.00 42 1019.1
20260506212016 22 270 8.0 19.3 0.00 0.00 0.00 42 1019.3
20260506211016 22 315 8.0 17.7 0.00 0.00 0.00 41 1019.3
20260506210016 22 293 6.4 16.1 0.00 0.00 0.00 42 1019.3
20260506205036 22 338 9.7 17.7 0.00 0.00 0.00 42 1019.4
20260506204015 22 338 11.3 20.9 0.00 0.00 0.00 42 1019.7
20260506203016 21 315 9.7 17.7 0.00 0.00 0.00 44 1019.7
20260506202036 21 0 6.4 16.1 0.00 0.00 0.00 44 1019.8
20260506201016 21 338 6.4 16.1 0.00 0.00 0.00 45 1019.8
20260506200016 21 293 8.0 17.7 0.00 0.00 0.00 46 1020.0
20260506195016 21 293 6.4 12.9 0.00 0.00 0.00 46 1019.9
20260506194156 20 293 3.2 11.3 0.00 0.00 0.00 47 1020.1
20260506193016 20 0 6.4 12.9 0.00 0.00 0.00 47 1020.1
20260506192035 20 338 6.4 17.7 0.00 0.00 0.00 48 1020.3
20260506191015 19 338 4.8 14.5 0.00 0.00 0.00 48 1020.4
20260506190015 19 270 6.4 12.9 0.00 0.00 0.00 48 1020.3
20260506185015 18 45 4.8 12.9 0.00 0.00 0.00 49 1020.4
20260506184015 18 338 3.2 12.9 0.00 0.00 0.00 50 1020.5
20260506183035 18 0 8.0 12.9 0.00 0.00 0.00 51 1020.5
20260506182015 18 293 6.4 20.9 0.00 0.00 0.00 51 1020.6
20260506181015 18 315 8.0 14.5 0.00 0.00 0.00 51 1020.7
20260506180015 17 293 9.7 17.7 0.00 0.00 0.00 52 1020.5
20260506175036 17 315 8.0 12.9 0.00 0.00 0.00 52 1020.6
20260506174015 17 293 8.0 14.5 0.00 0.00 0.00 52 1020.6
20260506172036 17 338 8.0 16.1 0.00 0.00 0.00 53 1020.6
20260506171055 17 293 8.0 16.1 0.00 0.00 0.00 53 1020.8
20260506170015 17 315 6.4 14.5 0.00 0.00 0.00 54 1020.9
20260506165016 16 270 4.8 14.5 0.00 0.00 0.00 54 1020.8
20260506164015 16 270 4.8 11.3 0.00 0.00 0.00 54 1020.8
20260506163015 16 315 4.8 9.7 0.00 0.00 0.00 55 1020.8
20260506162017 15 315 8.0 14.5 0.00 0.00 0.00 55 1020.9
20260506161017 15 293 4.8 11.3 0.00 0.00 0.00 56 1020.9
20260506160017 15 315 1.6 9.7 0.00 0.00 0.00 57 1021.0
20260506155037 15 293 4.8 11.3 0.00 0.00 0.00 57 1020.8
20260506154037 14 293 3.2 8.0 0.00 0.00 0.00 57 1020.9
20260506153017 14 293 1.6 4.8 0.00 0.00 0.00 58 1020.9
20260506152037 14 315 3.2 8.0 0.00 0.00 0.00 58 1020.9
20260506151017 14 293 3.2 6.4 0.00 0.00 0.00 58 1020.9
20260506150017 14 293 3.2 6.4 0.00 0.00 0.00 58 1020.9
20260506145017 14 338 3.2 9.7 0.00 0.00 0.00 58 1021.0
20260506144017 14 270 3.2 9.7 0.00 0.00 0.00 58 1021.0
20260506143017 13 315 3.2 6.4 0.00 0.00 0.00 60 1020.9
20260506142017 13 293 1.6 6.4 0.00 0.00 0.00 60 1020.9
20260506141017 13 270 1.6 4.8 0.00 0.00 0.00 60 1020.7
20260506140017 13 293 1.6 4.8 0.00 0.00 0.00 60 1020.5
20260506135037 13 0.0 3.2 0.00 0.00 0.00 61 1020.4
20260506134017 13 0.0 3.2 0.00 0.00 0.00 61 1020.2
20260506133017 13 0.0 3.2 0.00 0.00 0.00 61 1020.1
20260506132017 13 0.0 3.2 0.00 0.00 0.00 60 1020.1
20260506131017 13 0.0 1.6 0.00 0.00 0.00 60 1020.0
20260506130016 13 0.0 1.6 0.00 0.00 0.00 60 1019.9
20260506125036 13 0.0 1.6 0.00 0.00 0.00 60 1019.9
20260506124036 13 338 1.6 6.4 0.00 0.00 0.00 60 1019.9
20260506123016 13 338 3.2 8.0 0.00 0.00 0.00 60 1019.9
20260506122016 13 315 1.6 6.4 0.00 0.00 0.00 60 1019.8
20260506121036 13 338 3.2 6.4 0.00 0.00 0.00 60 1019.8
20260506120017 13 338 3.2 6.4 0.00 0.00 0.00 60 1019.7
20260506115016 13 315 3.2 9.7 0.00 0.00 0.00 61 1019.7
20260506114037 13 315 1.6 4.8 0.00 0.00 0.00 61 1019.6
20260506113016 13 315 1.6 4.8 0.00 0.00 0.00 62 1019.5
20260506112016 13 0.0 1.6 0.00 0.00 0.00 62 1019.4
20260506111017 13 0.0 3.2 0.00 0.00 0.00 62 1019.5
20260506110017 13 0.0 0.0 0.00 0.00 0.00 62 1019.5
20260506105017 13 0.0 0.0 0.00 0.00 0.00 62 1019.5
20260506104016 13 0.0 0.0 0.00 0.00 0.00 62 1019.3
20260506103017 13 0.0 0.0 0.00 0.00 0.00 62 1019.3
20260506102016 13 0.0 4.8 0.00 0.00 0.00 62 1019.5
20260506101016 13 293 1.6 4.8 0.00 0.00 0.00 62 1019.3
20260506100016 13 0.0 1.6 0.00 0.00 0.00 62 1019.3
20260506095036 13 0.0 3.2 0.00 0.00 0.00 61 1019.3
20260506094016 13 293 1.6 3.2 0.00 0.00 0.00 61 1019.4
20260506093016 13 0.0 1.6 0.00 0.00 0.00 61 1019.5
20260506092016 13 270 1.6 3.2 0.00 0.00 0.00 61 1019.6
20260506091016 13 0.0 3.2 0.00 0.00 0.00 61 1019.7
20260506090016 13 293 1.6 4.8 0.00 0.00 0.00 61 1019.6
20260506085016 13 0.0 1.6 0.00 0.00 0.00 61 1019.5
20260506084036 13 0.0 3.2 0.00 0.00 0.00 61 1019.4
20260506083017 13 293 1.6 4.8 0.00 0.00 0.00 61 1019.5
20260506082016 13 270 3.2 6.4 0.00 0.00 0.00 61 1019.5
20260506081016 13 293 4.8 11.3 0.00 0.00 0.00 61 1019.5
20260506073016 13 0.0 3.2 0.00 0.00 0.00 61 1019.3
20260506072016 13 0.0 6.4 0.00 0.00 0.00 61 1019.1
20260506071016 13 0.0 1.6 0.00 0.00 0.00 61 1019.1
20260506062015 14 315 1.6 4.8 0.00 0.00 0.00 59 1018.7
20260506061015 14 338 6.4 11.3 0.00 0.00 0.00 59 1018.4
20260506051037 15 315 3.2 8.0 0.00 0.00 0.00 57 1018.1
20260506045017 15 315 1.6 4.8 0.00 0.00 0.00 57 1018.0
20260506044017 15 293 3.2 4.8 0.00 0.00 0.00 56 1018.0
20260506043017 15 338 3.2 8.0 0.00 0.00 0.00 56 1017.9
20260506042037 15 315 4.8 9.7 0.00 0.00 0.00 56 1017.8
20260506041015 15 338 4.8 8.0 0.00 0.00 0.00 56 1017.5
20260506040017 15 338 4.8 11.3 0.00 0.00 0.00 56 1017.6
20260506035017 15 338 3.2 6.4 0.00 0.00 0.00 56 1017.5
20260506034017 15 315 3.2 6.4 0.00 0.00 0.00 56 1017.2
20260506033017 15 338 6.4 14.5 0.00 0.00 0.00 56 1017.0
20260506032017 15 338 6.4 16.1 0.00 0.00 0.00 55 1016.9
20260506031017 15 338 6.4 11.3 0.00 0.00 0.00 56 1016.7
20260506030017 15 338 6.4 8.0 0.00 0.00 0.00 55 1016.5
20260506025017 15 315 4.8 8.0 0.00 0.00 0.00 55 1016.5
20260506024017 16 0.0 1.6 0.00 0.00 0.00 54 1016.3
20260506023017 16 293 1.6 3.2 0.00 0.00 0.00 54 1016.3
20260506022037 16 0.0 3.2 0.00 0.00 0.00 54 1016.3
20260506021017 16 0.0 1.6 0.00 0.00 0.00 54 1016.3
20260506020017 16 0.0 3.2 0.00 0.00 0.00 53 1016.3
20260506015017 16 338 3.2 6.4 0.00 0.00 0.00 53 1016.4
20260506014037 16 0 3.2 8.0 0.00 0.00 0.00 53 1016.3
20260506013017 16 315 3.2 8.0 0.00 0.00 0.00 53 1016.3
20260506012017 16 315 3.2 6.4 0.00 0.00 0.00 53 1016.3
20260506011017 16 0 4.8 8.0 0.00 0.00 0.00 52 1016.4
20260506010017 16 338 3.2 6.4 0.00 0.00 0.00 53 1016.2
20260506005016 16 338 1.6 4.8 0.00 0.00 0.00 53 1016.2
20260506004016 16 0 1.6 4.8 0.00 0.00 0.00 53 1016.3
20260506003016 16 0 4.8 9.7 0.00 0.00 0.00 53 1016.2
20260506002017 16 0 1.6 4.8 0.00 0.00 0.00 53 1016.2
20260506001037 16 23 1.6 4.8 0.00 0.00 0.00 53 1016.1
20260506000017 16 23 3.2 14.5 0.00 0.00 0.00 53 1015.9
20260505235017 16 45 1.6 6.4 0.00 0.00 0.00 53 1016.0
20260505234117 16 338 4.8 12.9 0.00 0.00 0.00 53 1015.9
20260505233016 16 45 3.2 8.0 0.00 0.00 0.00 53 1015.9
20260505232017 16 0 6.4 12.9 0.00 0.00 0.00 52 1016.0
20260505231016 16 315 3.2 6.4 0.00 0.00 0.00 53 1016.0
20260505230016 16 315 1.6 6.4 0.00 0.00 0.00 52 1016.0
20260505225016 16 293 1.6 6.4 0.00 0.00 0.00 53 1016.1
20260505224016 16 0.0 1.6 0.00 0.00 0.00 53 1016.2